Weather History for KRHI - August, 2014

Change the Weather History Date:

Wednesday, August 20, 2014

  Actual Average Record
Temperature  
Mean Temperature 64 °F 65 °F  
Max Temperature 69 °F 77 °F 94 °F (1916)
Min Temperature 59 °F 53 °F 34 °F (1908)
Degree Days  
Heating Degree Days 1 2  
Month to date heating degree days 48 38  
Since 1 June heating degree days 265 223  
Since 1 July heating degree days 172 89  
Cooling Degree Days 0 2  
Month to date cooling degree days 5 56  
Year to date cooling degree days 123 226  
Since 1 June cooling degree days 116 214  
Growing Degree Days 14 (Base 50)    
Moisture  
Dew Point 58 °F    
Average Humidity 84    
Maximum Humidity 100    
Minimum Humidity 68    
Precipitation  
Precipitation 0.00 in 0.10 in 4.06 in (1926)
Month to date precipitation 2.77 2.11  
Year to date precipitation 24.60 19.70  
Snow  
Snow 0.00 in - 0.00 in ()
Month to date snowfall 0.0  
Since 1 June snowfall 0.0  
Since 1 July snowfall 0.0  
Snow Depth 0.00 in    
Sea Level Pressure  
Sea Level Pressure 29.90 in    
Wind  
Wind Speed 3 mph (NNW)    
Max Wind Speed 8 mph    
Max Gust Speed 12 mph    
Visibility 10 miles    
Events      
T = Trace of Precipitation, MM = Missing Value Source: NWS Daily Summary

Daily Weather History Graph

Daily Weather History Graph

Search for Another Location

Airport or City:

Trip Planner

Search our weather history database for the weather conditions in past years. The results will help you decide how hot, cold, wet, or windy it might be!

Date:

Astronomy

Aug. 20, 2014 Rise Set
Actual Time 6:04 AM CDT 7:57 PM CDT
Civil Twilight 5:32 AM CDT 8:28 PM CDT
Nautical Twilight 4:53 AM CDT 9:07 PM CDT
Astronomical Twilight 4:10 AM CDT 9:50 PM CDT
Moon 1:38 AM CDT (8/20) 4:47 PM CDT (8/20)
Length of Visible Light 14h 56m
Length of Day
13h 52m
Waning Crescent, 20% of the Moon is Illuminated
Aug 20
Waning Crescent
Aug 25
New
Sep 2
First Quarter
Sep 8
Full
Sep 15
Last Quarter

Hourly Weather History & Observations

Time (CDT) Temp. Dew Point Humidity Pressure Visibility Wind Dir Wind Speed Gust Speed Precip Events Conditions
12:12 AM 60.1 °F 57.9 °F 93% 29.81 in 10.0 mi Calm Calm - N/A   Overcast
12:27 AM 61.0 °F 57.9 °F 90% 29.80 in 10.0 mi West 4.6 mph - N/A   Overcast
12:53 AM 60.1 °F 57.9 °F 93% 29.80 in 10.0 mi WNW 5.8 mph - N/A   Overcast
1:53 AM 60.1 °F 57.0 °F 90% 29.79 in 10.0 mi NNW 4.6 mph - N/A   Overcast
2:18 AM 60.1 °F 57.0 °F 90% 29.80 in 10.0 mi NNW 4.6 mph - N/A   Overcast
2:53 AM 59.0 °F 57.0 °F 93% 29.80 in 10.0 mi Calm Calm - N/A   Overcast
3:53 AM 59.0 °F 57.0 °F 93% 29.81 in 10.0 mi Calm Calm - N/A   Overcast
4:53 AM 59.0 °F 57.0 °F 93% 29.83 in 10.0 mi North 3.5 mph - N/A   Overcast
5:53 AM 59.0 °F 57.0 °F 93% 29.84 in 10.0 mi Calm Calm - N/A   Overcast
6:53 AM 59.0 °F 57.9 °F 96% 29.87 in 8.0 mi Calm Calm - N/A   Overcast
7:53 AM 59.0 °F 57.0 °F 93% 29.88 in 10.0 mi Calm Calm - N/A   Overcast
8:53 AM 60.1 °F 57.0 °F 90% 29.90 in 10.0 mi NNW 5.8 mph - N/A   Overcast
9:38 AM 62.1 °F 57.0 °F 84% 29.90 in 10.0 mi NNW 5.8 mph - N/A   Overcast
9:53 AM 62.1 °F 57.0 °F 84% 29.90 in 10.0 mi NNE 5.8 mph - N/A   Overcast
10:43 AM 64.9 °F 57.9 °F 78% 29.90 in 10.0 mi Variable 5.8 mph - N/A   Overcast
10:53 AM 64.0 °F 57.0 °F 78% 29.91 in 10.0 mi NE 5.8 mph - N/A   Overcast
11:53 AM 64.9 °F 57.9 °F 78% 29.91 in 10.0 mi NNW 3.5 mph - N/A   Overcast
12:53 PM 66.0 °F 57.9 °F 75% 29.93 in 10.0 mi West 6.9 mph - N/A   Overcast
1:53 PM 66.9 °F 57.9 °F 73% 29.92 in 10.0 mi North 3.5 mph - N/A   Overcast
2:53 PM 68.0 °F 57.9 °F 70% 29.91 in 10.0 mi Variable 3.5 mph - N/A   Overcast
3:53 PM 68.0 °F 59.0 °F 73% 29.94 in 10.0 mi Variable 3.5 mph - N/A   Overcast
4:53 PM 66.9 °F 59.0 °F 76% 29.94 in 10.0 mi Calm Calm - N/A   Overcast
5:50 PM 69.8 °F 59.0 °F 68% 29.95 in 10.0 mi WNW 3.5 mph - N/A   Overcast
5:53 PM 68.0 °F 59.0 °F 73% 29.95 in 10.0 mi WNW 4.6 mph - N/A   Overcast
6:53 PM 66.9 °F 60.1 °F 79% 29.94 in 10.0 mi Calm Calm - N/A   Overcast
7:53 PM 64.9 °F 62.1 °F 90% 29.96 in 10.0 mi Calm Calm - N/A   Overcast
8:53 PM 64.0 °F 61.0 °F 90% 29.96 in 10.0 mi NE 4.6 mph - N/A   Overcast
9:42 PM 62.1 °F 60.1 °F 93% 29.97 in 10.0 mi Calm Calm - N/A   Mostly Cloudy
9:53 PM 61.0 °F 59.0 °F 93% 29.97 in 10.0 mi Calm Calm - N/A   Mostly Cloudy
10:53 PM 60.1 °F 59.0 °F 96% 29.99 in 10.0 mi Calm Calm - N/A   Overcast
11:53 PM 61.0 °F 60.1 °F 97% 29.98 in 10.0 mi Calm Calm - N/A   Overcast